Location: Sternwarte ZA, Rosenfeld-Brittheim
(48.2889°N, 8.6789°E)
Time: 08:20:15
(UTC+02:00)

ISS - Pass Details

Date: 20 May 2018
Orbit: 402 x 407 km, 51.6° (Epoch: 26 May)

Event Time Altitude Azimuth Distance (km) Brightness Sun altitude
Exits shadow 01:38:46 26° 293° (WNW) 846 -2.1 -21.7°
Maximum altitude 01:40:16 46° 353° (N) 550 -2.8 -21.7°
Drops below altitude 10° 01:43:26 10° 69° (ENE) 1,459 -0.7 -21.6°
Sets 01:45:34 0° 76° (ENE) 2,319 0.3 -21.6°
